This demonstration page uses our WeatherBlox Daily Observations layout. Learn more.

Left ArrowRight Arrow

40.92945, -100.16068

Hourly Observations for November 11, 2019

Temp ( °F °C ) Dew Point ( °F °C ) Humidity (%) Winds ( mph kmh ) Pressure ( in mb ) Visibility ( mi km ) Precip ( " mm )
12:15 am 00:15 Cloudy 20 -6.5 14 -10 76 76 N 21 33 30.57 1035 10 16.0934 0 0
12:35 am 00:35 Windy with Snow Likely 19 -7 14 -10 79 79 NNE 23 37 30.58 1036 7 11.26538 0 0
12:55 am 00:55 Cloudy with Light Snow 19 -7.5 16 -9 89 89 N 16 26 30.59 1036 3 4.82802 0 0
1:15 am 01:15 Cloudy with Light Snow 19 -7.5 14 -9.9 83 83 NNE 17 28 30.6 1036 10 16.0934 0 0
1:35 am 01:35 Cloudy with Light Snow 18 -7.7 14 -10.1 83 83 N 18 30 30.61 1037 10 16.0934 0 0
1:55 am 01:55 Cloudy with Light Snow 18 -8 13 -10.7 81 81 N 17 28 30.63 1037 10 16.0934 0 0
2:15 am 02:15 Cloudy with Light Snow 17 -8.2 13 -10.4 84 84 N 17 28 30.66 1038 2 3.21868 0 0
2:35 am 02:35 Cloudy with Light Snow 17 -8.6 13 -10.3 88 88 N 18 30 30.67 1039 2.5 4.02335 0 0
2:55 am 02:55 Windy with Snow Likely 17 -8.6 13 -10.5 86 86 N 23 37 30.68 1039 2 3.21868 0 0
3:15 am 03:15 Windy with Snow Likely 16 -8.7 13 -10.7 86 86 N 21 33 30.7 1040 1.5 2.41401 0 0
3:35 am 03:35 Cloudy with Light Snow 16 -9 12 -11.1 85 85 N 18 30 30.71 1040 1.5 2.41401 0 0
3:55 am 03:55 Cloudy with Light Snow 16 -9.1 12 -10.9 87 87 N 15 24 30.7 1040 2.5 4.02335 0 0
4:15 am 04:15 Cloudy with Light Snow 16 -9.1 13 -10.8 88 88 N 14 22 30.69 1039 2.5 4.02335 0 0
4:35 am 04:35 Windy with Snow Likely 16 -9 11 -11.6 82 82 N 20 31 30.7 1040 5 8.0467 0 0
4:55 am 04:55 Windy with Snow Likely 16 -9.1 11 -11.5 83 83 N 20 31 30.7 1040 3 4.82802 0 0
5:15 am 05:15 Cloudy with Light Snow 16 -9.1 11 -11.6 82 82 N 18 30 30.72 1040 4 6.43736 0 0
5:35 am 05:35 Cloudy with Light Snow 15 -9.2 11 -11.5 84 84 N 17 28 30.73 1040 4 6.43736 0 0
5:55 am 05:55 Cloudy with Light Snow 15 -9.2 11 -11.6 83 83 N 18 30 30.76 1041 5 8.0467 0 0
6:15 am 06:15 Mostly Cloudy 15 -9.7 9 -13 77 77 N 23 37 30.77 1042 10 16.0934 0 0
6:35 am 06:35 Mostly Cloudy with Haze 13 -10.4 8 -13.2 80 80 N 21 33 30.8 1043 5 8.0467 0 0
6:55 am 06:55 Cloudy 13 -10.5 8 -13.4 79 79 N 20 31 30.8 1043 10 16.0934 0 0
7:15 am 07:15 Cloudy 13 -10.6 8 -13.6 79 79 N 17 28 30.81 1043 10 16.0934 0 0
7:35 am 07:35 Mostly Cloudy with Haze 12 -11 6 -14.3 77 77 N 21 33 30.82 1044 3 4.82802 0 0
7:55 am 07:55 Mostly Cloudy with Haze 12 -11.3 6 -14.2 79 79 N 22 35 30.84 1044 5 8.0467 0 0
8:15 am 08:15 Mostly Cloudy with Haze 11 -11.6 5 -14.9 77 77 N 20 31 30.86 1045 4 6.43736 0 0
8:35 am 08:35 Mostly Cloudy with Haze 11 -11.6 5 -15.1 76 76 N 21 33 30.87 1045 5 8.0467 0 0
8:55 am 08:55 Partly Cloudy 11 -11.8 4 -15.6 74 74 N 22 35 30.89 1046 10 16.0934 0 0
9:15 am 09:15 Hazy 10 -12.4 3 -16 75 75 N 23 37 30.9 1046 5 8.0467 0 0
9:35 am 09:35 Partly Cloudy 10 -12.2 3 -16 74 74 N 24 39 30.9 1046 10 16.0934 0 0
9:55 am 09:55 Sunny 11 -11.7 4 -15.8 72 72 N 25 41 30.89 1046 10 16.0934 0 0
10:15 am 10:15 Sunny 12 -11.1 4 -15.5 70 70 N 22 35 30.89 1046 10 16.0934 0 0
10:35 am 10:35 Sunny 13 -10.8 4 -15.6 68 68 N 21 33 30.88 1046 10 16.0934 0 0
10:55 am 10:55 Sunny 13 -10.3 4 -15.6 65 65 N 21 33 30.9 1046 10 16.0934 0 0
11:15 am 11:15 Sunny 14 -10.1 4 -15.5 65 65 NNW 20 31 30.9 1046 10 16.0934 0 0
11:35 am 11:35 Partly Cloudy 15 -9.7 4 -15.3 64 64 NNW 23 37 30.89 1046 10 16.0934 0 0
11:55 am 11:55 Mostly Cloudy 15 -9.5 5 -15.2 64 64 NNW 18 30 30.87 1045 10 16.0934 0 0
12:15 pm 12:15 Cloudy 15 -9.2 5 -15.1 63 63 NNW 18 30 30.87 1045 10 16.0934 0 0
12:35 pm 12:35 Cloudy 15 -9.2 5 -15.2 62 62 N 17 28 30.86 1045 10 16.0934 0 0
12:55 pm 12:55 Cloudy 17 -8.6 6 -14.3 64 64 NNW 20 31 30.84 1044 10 16.0934 0 0
1:15 pm 13:15 Mostly Cloudy 17 -8.6 5 -15 60 60 N 17 28 30.84 1044 10 16.0934 0 0
1:35 pm 13:35 Mostly Cloudy 17 -8.3 6 -14.3 62 62 N 17 28 30.83 1044 10 16.0934 0 0
1:55 pm 13:55 Mostly Cloudy 17 -8.2 7 -13.8 64 64 NNW 20 31 30.81 1044 10 16.0934 0 0
2:15 pm 14:15 Mostly Cloudy 17 -8.4 6 -14.2 63 63 NNW 17 28 30.82 1044 10 16.0934 0 0
2:35 pm 14:35 Mostly Cloudy 17 -8.1 7 -13.7 64 64 NNW 17 28 30.81 1043 10 16.0934 0 0
2:55 pm 14:55 Mostly Cloudy 17 -8.2 7 -13.8 64 64 NNW 16 26 30.81 1044 10 16.0934 0 0
3:15 pm 15:15 Mostly Cloudy 17 -8.5 7 -13.9 65 65 NNW 10 17 30.82 1044 10 16.0934 0 0
3:35 pm 15:35 Partly Cloudy 17 -8.4 6 -14.3 63 63 N 16 26 30.81 1043 10 16.0934 0 0
3:55 pm 15:55 Sunny 18 -8 7 -14.1 62 62 N 13 20 30.8 1043 10 16.0934 0 0
4:15 pm 16:15 Sunny 18 -8 7 -14.1 62 62 N 15 24 30.8 1043 10 16.0934 0 0
4:35 pm 16:35 Sunny 17 -8.3 7 -14 64 64 NNW 13 20 30.81 1043 10 16.0934 0 0
4:55 pm 16:55 Sunny 17 -8.6 6 -14.3 64 64 NNW 16 26 30.81 1043 10 16.0934 0 0
5:15 pm 17:15 Sunny 15 -9.4 5 -14.8 65 65 NNW 9 15 30.82 1044 10 16.0934 0 0
5:35 pm 17:35 Clear 13 -10.4 5 -14.9 70 70 NNW 7 11 30.84 1044 10 16.0934 0 0
5:55 pm 17:55 Clear 11 -11.4 4 -15.3 73 73 NNW 6 9 30.85 1045 10 16.0934 0 0
6:15 pm 18:15 Clear 10 -12.1 4 -15.7 75 75 WNW 3 6 30.85 1045 10 16.0934 0 0
6:35 pm 18:35 Clear 8 -13.4 3 -16.3 79 79 NNW 7 11 30.87 1045 10 16.0934 0 0
6:55 pm 18:55 Clear 6 -14.5 1 -17 81 81 NNW 6 9 30.89 1046 10 16.0934 0 0
7:15 pm 19:15 Clear 6 -14.7 1 -17 83 83 NNW 5 7 30.89 1046 10 16.0934 0 0
7:35 pm 19:35 Clear 6 -14.3 2 -16.8 82 82 N 3 6 30.88 1046 10 16.0934 0 0
7:55 pm 19:55 Clear 6 -14.7 2 -16.9 84 84 NNW 5 7 30.9 1046 10 16.0934 0 0
8:15 pm 20:15 Clear 5 -15.2 1 -17.3 84 84 NNW 3 6 30.89 1046 10 16.0934 0 0
8:35 pm 20:35 Clear 4 -15.6 1 -17.5 85 85 N 3 6 30.9 1046 10 16.0934 0 0
8:55 pm 20:55 Clear 3 -16.2 0 -18 86 86 Calm 30.9 1047 10 16.0934 0 0
9:15 pm 21:15 Clear 4 -15.5 1 -17.5 85 85 W 8 13 30.9 1046 10 16.0934 0 0
9:35 pm 21:35 Clear 4 -15.3 0 -17.6 83 83 WSW 5 7 30.89 1046 10 16.0934 0 0
9:55 pm 21:55 Clear 4 -15.3 1 -17.2 86 86 Calm 30.89 1046 10 16.0934 0 0
10:15 pm 22:15 Clear 5 -15 1 -17 85 85 Calm 30.89 1046 10 16.0934 0 0
10:35 pm 22:35 Clear 5 -15.2 1 -17.3 84 84 Calm 30.88 1046 10 16.0934 0 0
10:55 pm 22:55 Clear 4 -15.4 1 -17.2 86 86 Calm 30.88 1046 10 16.0934 0 0
11:15 pm 23:15 Clear 1 -17 -1 -18.6 88 88 Calm 30.9 1047 10 16.0934 0 0
11:35 pm 23:35 Clear 1 -17.2 -2 -18.7 88 88 N 3 6 30.91 1047 10 16.0934 0 0
11:55 pm 23:55 Clear 1 -17.5 -3 -19.2 87 87 NW 5 7 30.9 1046 10 16.0934 0 0

Powered by AerisWeather